Bangor, ME

4:32 PM EST on December 08, 2019 (GMT -0500)
Bangor International

Weather History for KBGR - October, 2019

Change the Weather History Date:

Tuesday, October 22, 2019

  Actual Average Record
Temperature  
Mean Temperature 46 °F 45 °F  
Max Temperature 57 °F 55 °F 84 °F (1979)
Min Temperature 35 °F 35 °F 20 °F (1959)
Degree Days  
Heating Degree Days 18 20  
Month to date heating degree days 332 359  
Since 1 July heating degree days 546 631  
Cooling Degree Days 0 0  
Month to date cooling degree days 0 0  
Year to date cooling degree days 336 317  
Moisture  
Dew Point 41 °F    
Average Humidity 78    
Maximum Humidity 100    
Minimum Humidity 57    
Precipitation  
Precipitation 0.00 in 0.13 in 1.08 in (1942)
Month to date precipitation 2.74 2.98  
Year to date precipitation 41.76 33.06  
Snow  
Snow 0.00 in 0.00 in 1.10 in (1969)
Month to date snowfall 0.0 0.1  
Since 1 July snowfall 0.0 0.1  
Since 1 September snowfall 0.0 0.1  
Snow Depth 0.00 in    
Sea Level Pressure  
Sea Level Pressure 30.18 in    
Wind  
Wind Speed 3 mph ()    
Max Wind Speed 14 mph    
Max Gust Speed 18 mph    
Visibility 10.0 miles    
Events Fog    
T = Trace of Precipitation, MM = Missing Value Source: Averaged Metar Reports

Daily Weather History Graph

Daily Weather History Graph

Search for Another Location

Airport or City:

Astronomy

Oct. 22, 2019 Rise Set
Actual Time 6:59 AM EDT 5:39 PM EDT
Civil Twilight 6:29 AM EDT 6:09 PM EDT
Nautical Twilight 5:55 AM EDT 6:43 PM EDT
Astronomical Twilight 5:21 AM EDT 7:16 PM EDT
Moon No Moon Rise 3:05 PM EDT (10/22)
Length of Visible Light 11h 39m
Length of Day
10h 39m
Last Quarter, 37% of the Moon is Illuminated
Oct 22
Last Quarter
Oct 27
New
Nov 4
First Quarter
Nov 12
Full
Nov 19
Last Quarter

Hourly Weather History & Observations

Time (EDT) Temp. Windchill Dew Point Humidity Pressure Visibility Wind Dir Wind Speed Gust Speed Precip Events Conditions
12:53 AM 39.9 °F - 37.9 °F 93% 30.20 in 10.0 mi Calm Calm - N/A   Clear
1:53 AM 37.9 °F - 37.0 °F 97% 30.22 in 10.0 mi Calm Calm - N/A   Partly Cloudy
2:53 AM 37.9 °F 35.5 °F 37.0 °F 97% 30.21 in 10.0 mi North 3.5 mph - N/A   Partly Cloudy
3:53 AM 36.0 °F - 35.1 °F 97% 30.21 in 10.0 mi Calm Calm - N/A   Partly Cloudy
5:53 AM 35.1 °F - 34.0 °F 96% 30.23 in 10.0 mi Calm Calm - N/A   Scattered Clouds
6:53 AM 37.9 °F - 36.0 °F 93% 30.23 in 10.0 mi Calm Calm - N/A Fog Patches of Fog
7:53 AM 39.9 °F 37.8 °F 37.0 °F 89% 30.22 in 10.0 mi North 3.5 mph - N/A   Overcast
8:53 AM 42.1 °F - 39.0 °F 89% 30.22 in 10.0 mi Calm Calm - N/A   Overcast
9:53 AM 46.0 °F - 41.0 °F 83% 30.23 in 10.0 mi Calm Calm - N/A   Overcast
10:53 AM 52.0 °F - 42.1 °F 69% 30.22 in 10.0 mi Calm Calm - N/A   Mostly Cloudy
11:53 AM 54.0 °F - 44.1 °F 69% 30.21 in 10.0 mi Calm Calm - N/A   Mostly Cloudy
12:53 PM 57.0 °F - 44.1 °F 62% 30.19 in 10.0 mi ESE 9.2 mph - N/A   Mostly Cloudy
1:53 PM 57.0 °F - 43.0 °F 59% 30.19 in 10.0 mi ESE 6.9 mph - N/A   Mostly Cloudy
2:53 PM 57.0 °F - 44.1 °F 62% 30.18 in 10.0 mi ESE 8.1 mph - N/A   Overcast
3:53 PM 57.0 °F - 44.1 °F 62% 30.19 in 10.0 mi ESE 6.9 mph - N/A   Overcast
4:53 PM 55.9 °F - 41.0 °F 57% 30.17 in 10.0 mi ESE 8.1 mph - N/A   Overcast
5:53 PM 53.1 °F - 42.1 °F 66% 30.15 in 10.0 mi East 4.6 mph - N/A   Overcast
6:53 PM 53.1 °F - 43.0 °F 69% 30.17 in 10.0 mi East 3.5 mph - N/A   Overcast
7:53 PM 51.1 °F - 44.1 °F 77% 30.15 in 10.0 mi East 8.1 mph - N/A   Overcast
8:53 PM 51.1 °F - 44.1 °F 77% 30.13 in 10.0 mi East 8.1 mph - N/A   Overcast
9:53 PM 51.1 °F - 44.1 °F 77% 30.12 in 10.0 mi East 4.6 mph - N/A   Overcast
10:53 PM 51.1 °F - 44.1 °F 77% 30.09 in 10.0 mi East 5.8 mph - N/A   Overcast
11:53 PM 51.1 °F - 43.0 °F 74% 30.05 in 10.0 mi East 11.5 mph - N/A   Overcast